CAPE
167 57 214 410 292 487 396 675 782 871 765 554 357 55 3 3 37 347 480 1813 1695 2467 2026 1420 457 1083 1710 1771 1589 1612 1598 1076 909 977 1214 1175 893 1045 968 944 804 799 971
166 227 155 535 608 578 689 716 731 421 55 15 31 370 9 27 0 10 445 995 1609 2076 2534 1941 1558 524 1257 1988 1866 1671 1586 1353 1450 1352 1455 1395 1547 1399 827 1131 1211 1160 1014
350 476 574 408 698 610 884 405 246 41 5 11 0 2 9 10 2 0 2 386 839 1746 2127 2147 2036 1079 716 1796 2081 1885 1939 2166 2123 1618 1740 1567 1368 1518 1188 1309 1330 1291 1319
736 898 925 968 564 479 544 510 365 229 144 0 0 0 1 10 9 6 13 65 466 801 1687 2170 2636 2094 1419 1357 1482 2103 2395 1657 1683 1945 1885 1592 1113 1304 1640 1826 1543 1712 1719
1325 983 759 701 271 712 355 105 81 106 1 0 0 0 5 2 2 5 2 10 19 352 661 1203 1366 1609 1337 1042 1450 1667 1905 1993 2114 2236 1923 1729 1602 1636 1807 1816 1950 1955 1862
1372 608 906 503 303 494 173 67 38 0 0 0 0 0 1 1 0 0 0 0 399 672 706 751 550 875 1600 1327 1437 1742 1619 1519 1569 1742 1769 1933 1750 1718 1722 1872 1957 1851 1810
933 684 719 906 652 518 106 49 0 0 0 0 0 0 5 7 0 0 0 0 10 77 163 181 492 856 1303 1325 1710 1511 1316 1219 1308 1342 1809 1641 1485 1544 1381 1253 1327 1459 1826
812 891 765 818 838 720 154 0 0 0 0 0 0 0 1 26 10 0 0 0 0 0 0 61 236 350 376 170 414 692 615 693 904 1187 1102 1045 1077 931 1014 1185 1298 1399 1489
1006 1083 877 810 636 433 90 0 0 0 0 0 0 0 0 0 9 5 0 0 0 0 0 0 0 75 265 20 26 0 0 0 5 38 53 46 34 53 151 293 521 685 866
1202 938 800 611 280 96 36 0 0 0 0 0 4 0 0 0 0 1 0 0 0 0 0 0 0 0 102 0 0 0 0 0 0 0 0 0 0 0 0 0 0 8 68
1349 956 817 709 226 36 4 0 0 0 0 0 0 0 0 0 0 0 0 0 0 0 0 0 0 0 0 0 0 0 0 0 0 0 0 0 0 0 0 0 0 0 0
1244 1049 887 942 105 7 0 0 0 0 6 8 0 0 0 0 0 0 0 0 0 0 0 0 0 0 0 0 0 0 2 0 0 0 0 0 0 0 0 0 0 0 0
1034 1239 1026 833 97 0 0 0 0 0 0 0 0 0 0 0 0 0 0 0 0 0 0 0 0 0 0 0 0 19 48 0 0 0 0 0 0 0 0 0 0 0 0
1349 991 1076 560 44 0 0 0 0 0 1 0 0 0 0 0 0 0 0 0 0 0 0 0 0 0 0 0 0 215 0 0 0 0 0 0 0 0 0 0 0 0 0
1099 913 1058 437 65 3 2 10 0 0 18 0 0 0 0 0 0 0 0 0 0 0 0 0 0 0 0 0 0 0 0 0 0 0 0 0 0 0 4 6 10 8 0
1003 915 825 540 146 14 72 15 4 0 9 7 0 0 0 0 0 0 0 0 0 0 0 0 0 0 0 0 0 9 0 4 1 0 0 0 0 0 5 19 24 18 14
587 859 711 662 305 87 26 0 1 3 0 6 5 0 0 0 0 0 0 0 0 0 0 0 0 0 0 0 0 0 0 0 1 1 3 5 0 0 0 4 13 17 11
643 823 710 897 655 243 32 80 0 0 5 0 0 0 0 1 11 1 0 21 27 0 0 1 0 1 7 6 0 0 0 3 0 0 0 0 0 0 0 0 0 0 0
698 697 633 1007 862 452 157 85 11 0 0 4 0 0 0 1 0 0 4 8 54 48 17 7 18 6 9 1 0 0 0 0 0 5 0 0 0 0 0 0 0 0 0
984 820 778 711 972 686 251 207 73 0 0 0 0 0 0 1 11 2 57 71 107 87 82 84 60 17 3 0 0 0 0 0 0 0 0 0 0 0 0 0 0 0 0
1292 939 604 784 620 701 493 255 188 31 0 1 1 0 0 29 31 9 70 69 62 100 116 89 26 0 0 0 0 0 0 0 0 0 0 0 0 0 0 0 0 0 0
1990 1072 724 524 591 716 583 241 238 134 22 3 0 0 25 177 136 183 73 30 59 119 85 5 0 0 0 0 0 0 0 0 0 0 0 0 0 0 0 0 0 0 0
1733 1514 923 773 691 732 500 52 91 184 66 53 0 0 45 100 79 79 47 6 28 77 99 1 1 0 0 0 0 0 0 0 0 0 0 0 0 0 0 0 0 0 0
2044 1885 1328 1006 856 487 87 34 111 156 83 17 15 35 172 152 42 12 11 23 17 13 30 9 4 5 0 0 0 0 0 0 0 0 0 0 0 0 0 0 0 0 0
2413 2250 1564 1119 859 562 0 0 42 89 125 33 21 142 233 129 2 21 23 16 12 14 18 16 5 0 0 0 0 0 0 0 0 0 0 0 0 0 0 0 0 0 0
2610 1848 1352 1059 668 327 0 1 0 0 12 3 12 18 3 1 1 4 26 4 5 11 0 0 0 0 0 0 0 0 0 0 0 0 0 0 0 0 0 0 0 0 0
CIN
-216 -265 -193 -181 -182 -184 -188 -133 -160 -85 -73 -67 -88 -137 -38 -34 -151 -139 -103 -22 -19 -5 -1 -13 -49 -14 -0 -0 -0 -0 -0 -0 -0 -0 -0 -0 -0 -0 -0 -0 -0 -1 -1
-249 -231 -219 -130 -122 -150 -124 -102 -76 -87 -178 -113 -140 -92 -53 -103 -0 -100 -119 -62 -22 -17 -2 -0 -20 -49 -7 -0 -0 -0 -0 -0 -0 -0 -0 -0 -0 -0 -2 -0 -0 -0 -0
-209 -179 -152 -149 -123 -135 -82 -111 -131 -205 -124 -133 -0 -90 -70 -69 -49 -0 -9 -136 -58 -17 -11 -7 -4 -26 -29 -2 -0 -0 -0 -0 -0 -0 -0 -0 -0 -0 -0 -0 -0 -0 -0
-127 -122 -111 -92 -126 -116 -104 -100 -111 -110 -115 -0 -0 -6 -46 -64 -61 -36 -67 -144 -112 -45 -24 -7 -2 -4 -9 -6 -2 -0 -0 -3 -2 -0 -0 -1 -0 -0 -0 -0 -0 -0 -0
-96 -109 -117 -105 -147 -109 -107 -122 -147 -125 -33 -0 -0 -0 -100 -83 -32 -29 -20 -73 -81 -137 -71 -29 -18 -12 -4 -4 -1 -1 -1 -0 -0 -0 -0 -1 -1 -0 -0 -0 -0 -0 -0
-82 -123 -102 -106 -139 -106 -129 -183 -172 -0 -0 -0 -0 -0 -84 -88 -0 -0 -0 -0 -102 -64 -62 -48 -72 -46 -6 -7 -5 -2 -1 -2 -4 -1 -2 -4 -2 -1 -1 -0 -0 -0 -0
-113 -130 -124 -89 -98 -93 -163 -176 -1 -0 -0 -0 -0 -0 -129 -108 -0 -0 -0 -0 -115 -225 -158 -153 -99 -52 -26 -11 -8 -7 -5 -5 -3 -2 -1 -3 -4 -2 -5 -5 -6 -6 -0
-130 -128 -104 -91 -80 -87 -182 -0 -0 -0 -0 -0 -0 -0 -14 -42 -79 -0 -0 -0 -0 -0 -0 -193 -114 -87 -85 -120 -60 -33 -35 -23 -14 -7 -13 -17 -10 -14 -13 -6 -5 -4 -2
-111 -107 -98 -100 -115 -169 -225 -0 -0 -0 -0 -0 -0 -0 -0 -0 -78 -45 -0 -0 -0 -0 -0 -0 -0 -59 -105 -269 -57 -0 -0 -0 -55 -34 -36 -42 -48 -46 -97 -58 -24 -19 -18
-120 -118 -110 -145 -211 -286 -289 -0 -0 -0 -0 -0 -159 -0 -0 -0 -0 -3 -15 -0 -0 -0 -0 -0 -0 -0 -144 -0 -0 -0 -0 -0 -0 -0 -0 -0 -0 -0 -0 -0 -0 -24 -114
-109 -120 -137 -167 -262 -381 -258 -0 -0 -0 -0 -0 -17 -0 -0 -0 -0 -0 -0 -0 -0 -0 -0 -0 -0 -0 -0 -0 -0 -0 -0 -0 -0 -0 -0 -0 -0 -0 -0 -0 -0 -0 -0
-113 -133 -152 -157 -346 -301 -0 -0 -0 -0 -77 -78 -0 -0 -0 -0 -0 -0 -0 -0 -0 -0 -0 -0 -0 -0 -0 -0 -0 -0 -33 -0 -0 -0 -0 -0 -0 -0 -0 -0 -0 -0 -0
-156 -131 -166 -186 -365 -0 -0 -0 -0 -0 -0 -0 -0 -0 -0 -0 -0 -0 -0 -0 -0 -0 -0 -0 -0 -0 -0 -0 -0 -51 -215 -0 -0 -0 -0 -0 -0 -0 -0 -0 -0 -0 -0
-113 -186 -174 -253 -400 -0 -0 -0 -0 -0 -232 -0 -0 -0 -0 -0 -0 -0 -0 -0 -0 -0 -0 -0 -0 -0 -0 -0 -0 -101 -0 -0 -0 -0 -0 -0 -0 -0 -0 -0 -0 -0 -0
-174 -232 -187 -295 -427 -97 -47 -532 -0 -0 -373 -0 -0 -0 -0 -0 -0 -0 -0 -0 -0 -0 -0 -0 -0 -0 -0 -0 -0 -0 -0 -0 -0 -0 -0 -0 -0 -0 -129 -110 -104 -96 -0
-227 -236 -253 -301 -405 -560 -470 -527 -561 -0 -320 -405 -0 -0 -0 -0 -0 -0 -0 -0 -0 -0 -0 -0 -0 -0 -0 -0 -0 -177 -0 -108 -135 -0 -0 -0 -0 -0 -92 -142 -135 -128 -116
-313 -261 -289 -293 -353 -467 -282 -0 -158 -436 -0 -435 -398 -0 -0 -0 -0 -0 -0 -0 -0 -0 -0 -0 -0 -0 -36 -0 -0 -0 -0 -0 -79 -76 -88 -125 -0 -0 -0 -173 -165 -163 -161
-327 -282 -304 -266 -293 -372 -543 -481 -0 -0 -434 -0 -0 -0 -0 -169 -198 -258 -0 -116 -122 -0 -0 -87 -0 -61 -155 -168 -0 -0 -0 -126 -0 -0 -0 -0 -0 -0 -0 -0 -0 -0 -0
-360 -335 -342 -258 -276 -343 -423 -462 -531 -0 -0 -215 -0 -0 -0 -131 -50 -65 -219 -163 -167 -163 -197 -187 -149 -267 -243 -233 -0 -0 -0 -0 -0 -48 -0 -0 -0 -0 -0 -0 -0 -0 -0
-334 -334 -324 -317 -268 -297 -403 -418 -500 -0 -0 -0 -0 -0 -0 -65 -162 -88 -119 -114 -110 -142 -150 -141 -161 -218 -181 -0 -0 -0 -0 -0 -0 -0 -0 -0 -0 -0 -0 -0 -0 -0 -0
-290 -333 -371 -309 -344 -315 -370 -415 -434 -498 -0 -113 -291 -0 -0 -219 -206 -147 -108 -119 -123 -115 -129 -138 -157 -64 -0 -0 -0 -0 -0 -0 -0 -0 -0 -0 -0 -0 -0 -0 -0 -0 -0
-220 -330 -342 -374 -360 -315 -336 -450 -434 -456 -458 -299 -0 -0 -197 -150 -108 -95 -105 -116 -93 -85 -109 -175 -0 -0 -0 -0 -0 -0 -0 -0 -0 -0 -0 -0 -0 -0 -0 -0 -0 -0 -0
-261 -242 -329 -338 -336 -327 -402 -598 -517 -390 -429 -372 -0 -0 -172 -129 -106 -91 -123 -168 -157 -145 -100 -22 -39 -0 -0 -0 -0 -0 -0 -0 -0 -0 -0 -0 -0 -0 -0 -0 -0 -0 -0
-207 -196 -260 -272 -276 -261 -427 -660 -506 -407 -362 -330 -332 -263 -127 -121 -130 -122 -120 -131 -155 -173 -166 -196 -176 -115 -0 -0 -0 -0 -0 -0 -0 -0 -0 -0 -0 -0 -0 -0 -0 -0 -0
-139 -161 -263 -311 -301 -174 -85 -0 -564 -356 -262 -321 -302 -178 -128 -127 -155 -102 -102 -104 -126 -166 -177 -148 -218 -0 -0 -0 -0 -0 -0 -0 -0 -0 -0 -0 -0 -0 -0 -0 -0 -0 -0
-153 -229 -313 -342 -379 -505 -0 -536 -0 -0 -360 -339 -279 -190 -123 -111 -12 -122 -96 -103 -108 -140 -0 -0 -0 -0 -0 -0 -0 -0 -0 -0 -0 -0 -0 -0 -0 -0 -0 -0 -0 -0 -0
Wind_Speed
5 4 3 3 2 2 3 4 3 2 3 4 4 1 2 5 6 3 3 11 9 10 14 13 12 11 12 13 13 13 13 12 11 11 10 10 10 9 8 8 8 8 7
5 4 3 1 3 3 3 3 2 1 3 3 4 2 4 3 5 4 3 4 8 9 11 13 12 11 12 13 14 14 13 13 13 12 11 10 10 11 11 10 8 8 7
6 6 4 4 4 3 5 2 0 2 3 3 4 4 3 4 4 6 3 3 4 8 10 12 13 14 12 13 14 13 13 13 13 12 10 10 11 10 11 11 10 10 9
7 5 4 3 2 0 2 1 1 1 2 3 2 3 0 3 2 3 3 2 3 3 6 11 11 12 13 13 12 14 13 12 12 11 11 12 12 11 11 11 11 11 10
6 5 4 3 3 3 2 2 0 0 2 3 2 3 1 2 3 3 5 2 2 4 3 5 8 9 10 9 10 11 12 12 12 11 12 12 12 12 11 11 12 11 11
7 5 4 4 4 3 3 1 1 1 1 2 1 3 2 1 3 2 4 4 5 5 4 3 1 2 6 5 5 6 7 8 9 10 12 11 13 13 12 12 11 12 12
7 6 4 4 4 5 5 4 3 1 1 1 3 3 2 2 3 3 3 4 5 4 5 4 3 3 3 6 6 5 4 2 4 8 9 9 10 10 11 11 12 12 13
7 6 6 5 6 4 5 5 3 1 0 1 3 2 1 3 2 2 1 4 5 3 4 4 5 5 4 3 5 6 6 5 5 4 4 3 3 1 2 4 7 9 9
7 6 6 5 6 5 5 4 5 5 3 1 2 4 2 3 1 1 0 0 4 3 3 3 4 4 5 4 5 5 6 5 4 4 4 4 4 3 3 3 4 5 5
8 8 7 6 6 4 6 5 4 3 3 2 1 1 1 4 4 0 2 2 2 2 3 2 4 4 5 4 6 7 7 6 6 4 3 3 2 3 3 3 3 5 5
9 8 8 7 6 5 6 6 5 4 2 3 2 1 2 3 3 3 2 2 2 3 2 3 4 4 5 5 4 5 9 7 6 6 4 3 1 0 1 2 2 3 4
6 9 8 8 6 6 6 5 5 6 4 3 2 2 3 3 3 3 2 2 3 3 3 3 4 4 5 4 7 10 11 10 9 8 7 7 6 5 5 4 3 3 4
4 8 10 8 6 6 7 6 6 5 6 4 5 3 2 2 3 3 3 1 2 2 3 3 4 5 4 4 6 12 14 12 11 10 10 10 10 11 11 9 9 9 8
10 12 11 9 8 8 8 7 5 4 5 4 6 4 3 3 3 2 4 4 1 2 2 4 2 3 4 4 7 13 6 12 13 12 11 11 12 12 12 12 12 12 11
9 10 11 11 10 9 9 8 5 6 5 5 5 4 3 3 2 3 3 3 5 3 3 3 2 2 3 4 6 5 7 10 13 12 13 13 13 14 14 14 13 13 12
10 10 11 12 12 11 10 9 6 5 6 4 4 5 4 2 3 2 3 3 2 4 3 4 4 2 3 3 5 5 6 10 11 13 14 14 15 16 15 15 15 15 14
12 12 13 13 14 12 10 9 7 7 7 7 5 6 7 4 3 3 1 2 2 3 4 3 3 3 2 4 5 4 5 5 5 11 12 12 14 15 16 16 16 17 15
12 14 14 14 14 13 11 11 10 9 8 8 7 6 7 4 5 5 4 4 3 4 4 4 2 3 5 3 3 4 5 3 4 7 10 11 11 12 12 12 15 16 17
12 13 14 15 14 13 12 11 11 10 10 9 8 8 7 6 6 4 5 4 4 3 3 3 4 3 3 1 4 2 3 4 3 6 8 8 7 7 9 11 12 11 11
12 13 13 14 14 13 12 13 12 12 10 9 8 8 8 8 7 7 5 6 5 4 3 3 3 4 3 2 2 3 4 2 3 3 5 7 8 7 7 8 8 8 9
13 13 12 11 11 12 11 13 13 11 12 8 7 7 8 9 12 11 5 6 5 4 4 4 3 1 3 2 3 2 3 3 4 4 2 3 2 4 5 7 9 10 9
12 11 12 12 12 10 15 16 15 12 10 11 9 7 7 10 13 13 12 11 9 6 5 4 2 3 5 3 3 3 3 2 4 2 2 4 0 5 5 5 10 9 10
11 12 12 12 12 13 14 16 12 9 8 8 9 8 7 6 7 6 7 5 7 9 7 5 5 5 4 5 3 3 4 4 5 4 3 3 2 4 5 5 10 10 11
13 13 13 13 10 9 11 17 16 8 8 9 9 9 8 7 7 6 5 6 6 5 4 4 5 7 6 6 5 5 4 4 2 5 4 4 2 4 3 5 11 13 13
13 13 13 14 14 17 10 13 12 8 10 8 6 6 7 6 6 7 5 5 5 5 4 8 9 9 9 8 8 2 4 2 3 4 2 3 3 3 3 4 6 11 13
14 11 12 10 11 12 15 14 13 6 7 4 4 4 7 7 10 11 7 6 6 4 1 3 4 4 5 6 7 6 3 4 2 3 3 3 2 2 5 3 3 6 5
Wind_Direction
188 181 212 175 192 215 227 241 253 221 255 31 346 248 215 138 167 174 193 199 198 196 197 198 182 183 192 189 189 191 193 194 198 202 199 204 196 208 218 222 218 219 238
182 194 199 285 249 225 265 190 209 216 41 12 343 252 296 94 137 178 196 218 195 200 200 203 195 191 204 203 199 202 203 201 206 210 208 210 216 212 217 228 242 241 239
176 176 174 181 197 178 192 178 37 15 39 24 10 337 182 153 156 158 190 210 214 200 202 201 205 201 209 220 210 211 214 211 205 210 207 217 223 221 224 233 236 238 241
171 170 160 179 211 70 144 120 183 337 33 23 346 315 62 153 243 170 142 148 171 195 206 197 205 210 214 228 231 215 215 218 222 217 216 220 226 229 230 233 242 240 245
183 163 159 188 167 149 152 162 74 186 34 3 301 29 89 76 68 78 68 161 196 169 182 216 199 208 213 216 224 228 223 220 220 218 222 221 228 234 238 240 240 241 243
182 163 162 178 157 152 164 123 150 307 168 221 311 23 349 64 72 89 69 45 54 103 127 86 223 214 194 200 215 222 230 234 230 229 231 227 228 234 238 239 235 238 245
187 177 172 181 175 172 185 181 134 178 337 25 60 1 356 80 76 97 89 84 75 90 100 108 95 81 90 102 83 80 66 20 242 238 241 234 243 242 245 247 243 239 238
183 179 175 185 189 169 175 163 145 139 280 162 139 97 45 2 49 73 7 120 129 119 108 102 115 120 104 100 119 109 93 81 73 66 44 63 87 63 294 260 259 261 258
184 169 185 180 192 170 168 175 157 161 171 252 178 143 100 200 223 53 201 190 147 135 142 150 146 153 148 154 141 136 131 120 102 89 78 63 38 20 19 357 338 329 306
185 177 176 183 171 160 163 183 163 162 129 184 360 46 35 139 154 96 336 280 290 168 180 216 170 174 178 172 176 174 164 158 144 137 108 73 45 9 357 1 359 355 348
179 176 178 176 171 162 168 171 164 169 144 124 146 166 44 46 67 126 187 281 321 262 228 205 218 181 193 186 199 204 182 180 182 177 171 170 164 139 7 6 11 360 335
184 187 182 181 172 164 169 179 176 166 149 153 133 164 163 164 190 138 123 198 221 277 247 235 218 222 202 191 202 203 201 200 200 197 203 207 211 221 235 245 256 270 295
182 192 178 182 172 174 173 163 164 171 169 172 172 180 178 184 142 134 117 178 173 298 308 262 237 222 220 192 211 201 209 209 217 217 211 218 222 226 231 241 252 260 268
189 187 185 177 175 166 171 170 169 173 173 186 189 191 171 185 161 161 163 145 60 337 309 256 307 233 223 206 228 214 217 218 218 221 226 223 230 236 237 239 244 252 255
190 184 180 176 179 177 178 169 170 176 176 192 208 198 191 195 189 192 196 155 150 178 271 295 298 294 245 209 222 206 221 233 231 226 229 228 230 234 238 241 244 247 242
190 176 178 182 182 183 179 173 172 182 177 196 206 205 213 205 199 226 194 166 187 153 202 204 246 258 241 239 253 239 232 235 242 240 238 232 234 239 240 242 242 242 242
192 185 183 187 187 183 182 182 177 179 181 197 205 206 231 218 204 219 229 123 195 157 196 284 233 242 252 241 285 270 262 255 254 245 241 235 233 236 241 243 244 246 243
192 189 185 188 189 189 184 187 182 191 184 194 206 205 219 222 233 202 193 194 177 181 143 201 257 265 237 265 260 283 280 265 265 273 282 283 260 257 258 248 246 247 249
189 186 186 191 189 189 188 193 188 186 194 195 196 200 213 206 237 222 200 203 202 178 181 164 245 246 265 261 312 304 284 286 278 286 285 283 288 281 268 269 271 259 250
186 191 190 189 192 187 190 193 190 192 193 195 194 202 204 204 206 220 208 210 202 184 190 209 225 249 241 288 233 264 302 275 292 305 295 290 311 329 326 316 298 283 274
193 187 184 191 189 186 193 197 196 196 196 187 194 204 209 213 204 211 188 209 214 213 190 212 240 240 251 270 228 239 240 274 282 232 269 287 335 311 301 290 285 278 260
187 172 181 183 180 195 196 188 189 193 204 192 202 211 218 216 222 210 203 211 198 202 214 180 223 220 261 230 220 230 213 240 289 244 152 280 115 288 280 282 272 278 288
164 169 173 179 191 205 203 188 193 188 185 196 203 203 212 210 196 212 214 256 257 243 205 180 212 219 236 221 206 246 227 215 228 259 134 266 191 250 261 271 275 273 268
170 172 178 182 193 231 191 184 183 173 195 206 210 200 206 187 193 207 202 224 246 256 243 229 217 255 230 257 209 227 240 241 291 275 152 228 230 242 263 255 266 268 280
176 180 181 170 179 181 194 160 169 188 208 209 204 195 197 200 205 225 205 227 235 245 257 252 245 263 274 262 248 184 254 221 278 270 238 190 265 261 242 246 258 266 264
173 171 181 196 187 161 166 167 192 190 199 183 178 198 205 197 196 191 193 213 245 259 309 348 337 332 300 285 281 206 200 233 236 306 262 186 249 236 307 264 260 263 273